Location: Forli
(44.2227°N, 12.0407°E)
Time: 03:13:42
(UTC+02:00)

DX 1 - Pass Details

Date: 16 April 2026
Orbit: 593 x 604 km, 98.4° (Epoch: 19 May)

Event Time Altitude Azimuth Distance (km) Brightness Sun altitude
Rises 05:00:09 0° 4° (N) 2,843 ? -15.1°
Reaches altitude 10° 05:02:29 10° 354° (N) 1,936 ? -14.8°
Maximum altitude 05:06:11 31° 292° (WNW) 1,042 ? -14.2°
Enters shadow 05:07:57 23° 250° (WSW) 1,294 ? -13.9°
